Station 45001 (LLNR 16880) - MID SUPERIOR- 60 NM North Northeast Hancock, MI Image indicating link to RSS feed of recent meteorological observations for station 45001


Conditions at 45001 as of
(8:10 am EDT)
1210 GMT on 07/16/2024:
     

Click on the graph icon in the table below to see a time series plot of the last five days of that observation.

5-day plot - Wind Direction Wind Direction (WDIR): W ( 280 deg true )
5-day plot - Wind Speed Wind Speed (WSPD): 5.8 kts
5-day plot - Wind Gust Wind Gust (GST): 5.8 kts
5-day plot - Atmospheric Pressure Atmospheric Pressure (PRES):29.72 in
5-day plot - Air Temperature Air Temperature (ATMP): 57.4 °F
5-day plot - Water Temperature Water Temperature (WTMP): 55.9 °F
5-day plot - Dew Point Dew Point (DEWP): 56.8 °F
5-day plot - Wind Speed at 10 Meters Wind Speed at 10 meters (WSPD10M): 5.8 kts
5-day plot - Wind Speed at 20 Meters Wind Speed at 20 meters (WSPD20M): 5.8 kts
5-day plot -  Wind Speed, Wind Gust and Atmospheric Pressure Combined plot of Wind Speed, Gust, and Air Pressure
Supplemental Measurements
Highest 1-minute Wind Speed
Time (EDT)5-day plot - 1-Minute Wind Speed WSPD 5-day plot - 1-Minute Wind Direction WDIR
8:05 am 5.8 kts-
Previous observations
TIME
(EDT)
5-day plot - Wind Direction
WDIR
 
5-day plot - Wind Speed
WSPD
kts
5-day plot - Wind Gust
GST
kts
5-day plot - Wave Height
WVHT
ft
5-day plot - Dominant Wave Period
DPD
sec
5-day plot - Average Wave Period
APD
sec
5-day plot - Mean Wave Direction
MWD
 
5-day plot - Atmospheric Pressure
PRES
in
5-day plot - Pressure Tendency
PTDY
in
5-day plot - Air Temperature
ATMP
°F
5-day plot - Water Temperature
WTMP
°F
5-day plot - Dew Point
DEWP
°F
5-day plot - Salinity
SAL
psu
5-day plot - Visibility
VIS
nmi
5-day plot - Tide (above MLLW)
TIDE
ft
2024-07-16 08:00 am W 5.8 5.8----29.72+0.01 57.2 55.9 56.7---
2024-07-16 07:50 am W 5.8 5.8 1.0 32.8WNW29.72- 57.0 55.9 56.5---
2024-07-16 07:40 am W 5.8 7.8----29.72- 57.4 55.9 56.8---
2024-07-16 07:30 am W 5.8 7.8----29.71- 57.4 55.9 56.8---
2024-07-16 07:20 am W 5.8 7.8 0.7-2.7-29.71- 57.2 55.8 56.7---
2024-07-16 07:10 am W 5.8 7.8 0.7-2.7-29.71- 57.0 55.8 56.5---
2024-07-16 07:00 am W 5.8 7.8----29.71+0.01 57.2 55.8 56.7---
2024-07-16 06:50 am W 5.8 7.8 0.7-2.4-29.72- 57.0 55.8 56.5---
2024-07-16 06:40 am W 7.8 7.8----29.72- 57.4 55.8 56.8---
2024-07-16 06:30 am W 7.8 7.8----29.72- 57.2 55.8 56.7---
2024-07-16 06:20 am W 5.8 7.8 0.7-2.4-29.72- 56.8 55.8 56.3---
2024-07-16 06:10 amWSW 5.8 5.8 0.7-2.4-29.72- 56.7 55.8 56.1---
2024-07-16 06:00 amWSW 5.8 5.8----29.72+0.02 57.0 55.6 56.5---
2024-07-16 05:50 am SW 5.8 5.8 0.7-2.3-29.71- 57.0 55.8 56.5---
2024-07-16 05:40 am SW 3.9 5.8----29.71- 57.0 55.6 56.5---
2024-07-16 05:30 am SW 3.9 5.8----29.72- 57.2 55.6 56.7---
2024-07-16 05:20 amWSW 5.8 5.8 0.3-2.3-29.71- 57.6 55.6 57.0---
2024-07-16 05:10 am W 5.8 5.8 0.3-2.3-29.71- 57.6 55.6 57.0---
2024-07-16 05:00 amWSW 5.8 5.8----29.71+0.00 57.6 55.4 57.0---
2024-07-16 04:50 am W 5.8 7.8 0.3-2.5-29.70- 57.7 55.4 57.2---
2024-07-16 04:40 amWSW 5.8 7.8----29.70- 57.6 55.4 57.0---
2024-07-16 04:30 amWSW 5.8 7.8----29.70- 57.7 55.6 57.2---
2024-07-16 04:20 am W 7.8 7.8 0.3-2.3-29.70- 57.6 55.6 57.0---
2024-07-16 04:10 am W 7.8 7.8 0.3-2.3-29.70- 57.7 55.6 57.2---
2024-07-16 04:00 am W 7.8 7.8----29.70-0.01 57.6 55.6 57.0---
2024-07-16 03:50 am W 5.8 7.8 0.3-2.5-29.70- 57.4 55.8 56.8---
2024-07-16 03:40 amWSW 5.8 7.8----29.70- 57.2 55.8 56.7---
2024-07-16 03:30 amWSW 5.8 7.8----29.70- 57.4 55.8 56.8---
2024-07-16 03:20 amWSW 5.8 7.8 0.3-2.4-29.70- 57.2 55.8 56.7---
2024-07-16 03:10 amWSW 5.8 7.8 0.3-2.4-29.70- 57.2 55.9 56.7---
2024-07-16 03:00 amWSW 5.8 7.8----29.70-0.02 57.4 55.9 56.8---
2024-07-16 02:50 am W 5.8 7.8 0.3-2.4-29.70- 57.7 55.9 57.0---
2024-07-16 02:40 am W 7.8 9.7 0.3-2.4-29.70- 57.9 55.9 57.2---
2024-07-16 02:30 am W 7.8 9.7----29.70- 57.9 55.9 57.0---
2024-07-16 02:20 am W 7.8 7.8 0.0-2.6-29.71- 58.1 55.9 57.0---
2024-07-16 02:10 am W 7.8 7.8 0.0-2.6-29.71- 58.1 56.1 56.5---
2024-07-16 02:00 am W 7.8 9.7----29.71-0.03 58.5 56.1 56.3---
2024-07-16 01:50 am W 7.8 9.7 0.0-2.7-29.71- 58.5 56.1 56.1---
2024-07-16 01:40 am W 7.8 9.7----29.71- 58.1 56.3 55.9---
2024-07-16 01:30 am W 5.8 7.8----29.72- 57.9 56.3 55.8---
2024-07-16 01:20 am W 7.8 7.8 0.0-2.7-29.72- 57.9 56.3 55.9---
2024-07-16 01:10 amWNW 5.8 7.8----29.71- 57.6 56.5 56.1---
2024-07-16 01:00 am W 5.8 5.8----29.71+0.00 57.4 56.5 56.1---
2024-07-16 12:50 am W 3.9 3.9 0.0-2.7-29.71- 57.4 56.5 56.3---
2024-07-16 12:40 am W 3.9 5.8----29.71- 57.4 56.5 56.5---
2024-07-16 12:30 amWNW 3.9 5.8----29.71- 57.4 56.5 56.7---
2024-07-16 12:20 amWNW 3.9 5.8 0.0-2.6-29.72- 57.4 56.5 56.8---
2024-07-16 12:10 am W 3.9 3.9 0.0-2.6-29.72- 57.2 56.7 56.7---
2024-07-16 12:00 am W 3.9 3.9----29.72+0.03 57.4 56.7 56.7---
2024-07-15 11:50 pmWNW 1.9 3.9----29.73- 57.2 56.7 56.7---
2024-07-15 11:40 pm W 3.9 3.9----29.74- 57.0 56.7 56.5---
2024-07-15 11:30 pm W 3.9 3.9----29.74- 57.0 56.7 56.5---
2024-07-15 11:20 pm W 1.9 3.9 0.3-2.6-29.74- 57.2 56.7 56.3---
2024-07-15 11:10 pm W 1.9 3.9 0.3-2.6-29.74- 57.4 56.7 56.3---
2024-07-15 11:00 pmWNW 1.9 1.9----29.74+0.03 57.6 56.7 56.5---
2024-07-15 10:50 pm NW 1.9 1.9 0.3-2.6-29.73- 57.6 56.7 56.5---
2024-07-15 10:40 pmNNW 1.9 3.9 0.3-2.6-29.73- 57.4 56.8 56.3---
2024-07-15 10:30 pm- 0.0 1.9----29.73- 57.4 56.8 56.5---
2024-07-15 10:20 pmSSE 1.9 3.9 0.3-2.5-29.72- 57.6 57.0 56.3---
2024-07-15 10:10 pmSSW 1.9 3.9 0.3-2.5-29.72- 57.9 57.0 56.3---
2024-07-15 10:00 pm- 0.0 1.9----29.71-0.01 57.9 57.0 56.3---
2024-07-15 09:50 pm NW 1.9 5.8 0.3-2.5-29.71- 57.7 57.0 56.3---
2024-07-15 09:40 pm NW 3.9 5.8----29.71- 58.8 57.0 56.1---
2024-07-15 09:30 pmWNW 1.9 5.8----29.70- 58.6 56.8 55.9---
2024-07-15 09:20 pm W 1.9 3.9 0.3-2.5-29.71- 58.6 56.8 56.1---
2024-07-15 09:10 pm- 0.0 3.9 0.3-2.5-29.70- 58.5 57.0 56.1---
2024-07-15 09:00 pmSSE 3.9 3.9----29.70-0.03 58.6 57.0 56.1---
2024-07-15 08:50 pm SE 3.9 5.8 0.3-2.4-29.70- 58.5 57.0 56.1---
2024-07-15 08:40 pm SE 5.8 7.8----29.70- 58.5 57.0 56.3---
2024-07-15 08:30 pm SE 7.8 7.8----29.69- 58.3 57.0 56.5---
2024-07-15 08:20 pm SE 7.8 9.7 0.3-2.4-29.69- 58.3 57.0 56.8---
2024-07-15 08:10 pmESE 5.8 7.8 0.3-2.4-29.69- 58.3 57.0 57.2---
2024-07-15 08:00 pm E 1.9 3.9----29.71-0.03 58.6 57.2 57.2---
2024-07-15 07:50 pm NE 3.9 3.9 0.3-2.4-29.71- 58.6 57.2 57.0---
2024-07-15 07:40 pmNNE 3.9 3.9----29.71- 58.6 57.2 57.0---
2024-07-15 07:30 pm N 3.9 5.8----29.72- 58.5 57.2 57.0---
2024-07-15 07:20 pmNNW 5.8 7.8 0.3-2.3-29.72- 58.3 57.2 57.0---
2024-07-15 07:10 pmNNW 5.8 9.7 0.3-2.3-29.73- 58.3 57.4 57.0---
2024-07-15 07:00 pmNNE 5.8 7.8----29.72-0.02 58.5 57.2 56.7---
2024-07-15 06:50 pm E 7.8 7.8 0.3-2.3-29.70- 58.6 57.2 56.7---
2024-07-15 06:40 pmENE 7.8 7.8----29.70- 58.5 57.2 56.8---
2024-07-15 06:30 pm E 5.8 7.8----29.71- 58.6 57.2 57.2---
2024-07-15 06:20 pmENE 7.8 7.8 0.3-2.4-29.71- 58.6 57.2 57.4---
2024-07-15 06:10 pm NE 5.8 5.8 0.3-2.4-29.72- 58.6 57.0 57.4---
2024-07-15 06:00 pm NE 7.8 9.7----29.73-0.04 58.6 57.0 57.6---
2024-07-15 05:50 pm NE 9.7 11.7 0.3-2.7-29.72- 58.6 57.0 57.6---
2024-07-15 05:40 pm NE 9.7 11.7 0.3-2.7-29.72- 58.6 56.8 57.9---
2024-07-15 05:30 pm NE 9.7 11.7----29.72- 58.6 56.8 57.9---
2024-07-15 05:20 pm NE 9.7 9.7 0.3-3.0-29.73- 58.6 56.8 57.7---
2024-07-15 05:10 pm NE 7.8 9.7 0.3-3.0-29.74- 58.6 56.8 57.7---
2024-07-15 05:00 pm NE 7.8 9.7----29.75-0.03 58.8 56.8 57.9---
2024-07-15 04:50 pmENE 7.8 9.7----29.74- 58.8 57.0 57.7---
2024-07-15 04:40 pm NE 7.8 9.7----29.74- 58.8 56.8 57.7---
2024-07-15 04:30 pm NE 7.8 7.8----29.74- 58.8 56.8 57.9---
2024-07-15 04:20 pm NE 7.8 9.7 0.3-3.0-29.75- 59.0 56.8 57.9---
2024-07-15 04:10 pm NE 7.8 9.7----29.75- 59.0 57.0 57.9---
2024-07-15 04:00 pm NE 7.8 7.8----29.75-0.04 59.0 56.5 57.9---
2024-07-15 03:50 pm NE 5.8 7.8 0.3-3.0-29.75- 59.0 56.1 57.9---
2024-07-15 03:40 pmENE 5.8 7.8----29.75- 59.0 56.3 57.7---
2024-07-15 03:30 pm NE 5.8 7.8----29.76- 58.8 56.3 57.9---
2024-07-15 03:20 pm NE 5.8 5.8 0.3-2.8-29.77- 58.8 56.3 57.9---
2024-07-15 03:10 pmNNE 3.9 5.8 0.3-2.8-29.77- 58.8 56.1 57.9---
2024-07-15 03:00 pmNNE 3.9 3.9----29.77-0.04 59.0 56.1 57.7---
2024-07-15 02:50 pmNNW 1.9 3.9 0.3-2.9-29.78- 59.2 56.1 57.6---
2024-07-15 02:40 pm N 1.9 1.9 0.3-2.9-29.78- 59.4 56.1 57.7---
2024-07-15 02:30 pm- 0.0 1.9----29.77- 59.4 56.1 57.7---
2024-07-15 02:20 pmENE 1.9 3.9 0.3-2.8-29.77- 59.2 56.1 57.6---
2024-07-15 02:10 pm E 3.9 5.8 0.3-2.8-29.77- 60.1 56.1 57.4---
2024-07-15 02:00 pm- 0.0 1.9----29.78-0.01 59.7 56.1 57.2---
2024-07-15 01:50 pm SE 1.9 5.8 0.3-2.8-29.78- 59.5 56.3 57.4---
2024-07-15 01:40 pmSSE 3.9 3.9----29.78- 59.2 56.3 57.6---
2024-07-15 01:30 pm S 3.9 3.9----29.79- 59.4 56.3 57.6---
2024-07-15 01:20 pm S 3.9 3.9 0.3-2.8-29.79- 59.9 56.3 57.4---
2024-07-15 01:10 pmSSE 3.9 3.9 0.3-2.8-29.78- 59.2 56.3 57.6---
2024-07-15 01:00 pmSSE 3.9 3.9----29.78-0.01 59.5 56.1 57.4---
2024-07-15 12:50 pmSSE 1.9 1.9 0.3-2.7-29.79- 59.0 56.3 57.6---
2024-07-15 12:40 pm SE 1.9 1.9 0.3-2.7-29.80- 59.0- 57.4---
2024-07-15 12:30 pm SE 3.9 3.9----29.80- 58.8 56.1 57.6---
2024-07-15 12:20 pm S 3.9 3.9 0.3-2.7-29.80- 58.8 56.1 57.6---
2024-07-15 12:10 pmSSW 3.9 3.9 0.3-2.7-29.81- 58.8 56.3 57.6---
2024-07-15 12:00 pm S 3.9 3.9----29.81+0.00 58.8 56.1 57.6---
2024-07-15 11:50 am S 3.9 5.8 0.3-2.6-29.81- 58.5 56.1 57.4---
2024-07-15 11:40 am S 3.9 5.8----29.81- 58.3 56.1 57.2---
2024-07-15 11:30 am S 3.9 5.8----29.81- 58.6 56.1 57.4---
2024-07-15 11:20 amSSE 1.9 3.9 0.3-2.6-29.80- 58.6 56.1 57.4---
2024-07-15 11:10 amSSE 3.9 3.9 0.3-2.6-29.79- 58.5 56.1 57.4---
2024-07-15 11:00 am S 3.9 3.9----29.79-0.02 58.3 56.1 57.0---
2024-07-15 10:50 am S 3.9 3.9 0.3-2.5-29.79- 58.1 56.1 57.0---
2024-07-15 10:40 am S 3.9 5.8----29.79- 58.3 56.1 57.2---
2024-07-15 10:30 amSSE 3.9 5.8----29.79- 58.5 56.1 57.0---
2024-07-15 10:20 am S 3.9 3.9 0.3-2.6-29.79- 58.3 56.3 57.0---
2024-07-15 10:10 am S 3.9 5.8 0.3-2.6-29.79- 58.5 56.3 57.2---
2024-07-15 10:00 am S 3.9 5.8----29.79-0.01 58.5 56.3 57.2---
2024-07-15 09:50 amSSW 3.9 5.8 0.3-2.6-29.80- 58.6 56.3 57.2---
2024-07-15 09:40 amSSW 1.9 3.9 0.3-2.6-29.81- 59.0 56.3 57.2---
2024-07-15 09:30 am SW 3.9 3.9----29.81- 59.0 56.3 57.0---
2024-07-15 09:20 am SW 3.9 3.9 0.3-2.7-29.82- 59.2 56.3 56.8---
2024-07-15 09:10 amSSW 1.9 3.9 0.3-2.7-29.81- 58.8 56.3 56.7---
2024-07-15 09:00 amSSW 1.9 3.9----29.80+0.00 59.9 56.3 57.0---
2024-07-15 08:50 amSSW 1.9 1.9 0.3-2.7-29.80- 59.7 56.3 57.0---
2024-07-15 08:40 am SW 1.9 3.9 0.3-2.7-29.80- 59.7 56.3 57.0---
2024-07-15 08:30 am W 3.9 3.9----29.81- 60.4 56.1 57.4---
2024-07-15 08:20 am W 1.9 3.9 0.3-2.7-29.81- 60.6- 57.4---
2024-07-15 08:10 amWNW 1.9 3.9----29.81- 60.3 56.1 57.4---
2024-07-15 08:00 amWNW 3.9 5.8----29.81+0.00 60.3 56.1 57.6---
2024-07-15 07:50 amWNW 5.8 5.8 0.3-2.7-29.81- 59.9 56.1 57.7---

Detailed Wave Summary
for 45001 as of (7:40 am EDT)
1140 GMT on 07/16/2024:

These wave data are displayed in rounded times.

     

Click on the graph icon in the table below to see a time series plot of the last five days of that observation.

5-day plot - Significant Wave Height Significant Wave Height (WVHT): 1.0 ft
5-day plot - Swell Height Swell Height (SwH): 0.0 ft
5-day plot - Swell Period Swell Period (SwP): 5.6 sec
5-day plot - Swell Direction Swell Direction (SwD):WSW
5-day plot - Wind Wave Height Wind Wave Height (WWH): 1.0 ft
5-day plot - Wind Wave Period Wind Wave Period (WWP): 3.0 sec
5-day plot - Wind Wave Direction Wind Wave Direction (WWD):WNW
5-day plot - Average Wave Period Average Wave Period (APD): 2.8 sec
Previous observations
TIME
(EDT)
5-day plot - Wave Height
WVHT
ft
5-day plot - Swell Height
SwH
ft
5-day plot - Swell Period
SwP
sec
5-day plot - Swell Direction
SwD
 
5-day plot - Wind Wave Height
WWH
ft
5-day plot - Wind Wave Period
WWP
sec
5-day plot - Wind Wave Direction
WWD
 
5-day plot - Wave Steepness
STEEPNESS
 
5-day plot - Average Wave Period
APD
sec
2024-07-16 07:10 am 0.7------ N/A 2.7
2024-07-16 06:40 am 0.7------ N/A 2.4
2024-07-16 06:10 am 0.7------ N/A 2.4
2024-07-16 05:40 am 0.7------ N/A 2.3
2024-07-16 05:10 am 0.3------ N/A 2.3
2024-07-16 04:40 am 0.3------ N/A 2.5
2024-07-16 04:10 am 0.3------ N/A 2.3
2024-07-16 03:40 am 0.3------ N/A 2.5
2024-07-16 03:10 am 0.3------ N/A 2.4
2024-07-16 02:40 am 0.3------ N/A 2.4
2024-07-16 02:10 am 0.0------ N/A 2.6
2024-07-16 01:40 am 0.0------ N/A 2.7
2024-07-16 01:10 am 0.0------ N/A 2.7
2024-07-16 12:40 am 0.0------ N/A 2.7
2024-07-16 12:10 am 0.0------ N/A 2.6
2024-07-15 11:10 pm 0.3------ N/A 2.6
2024-07-15 10:40 pm 0.3------ N/A 2.6
2024-07-15 10:10 pm 0.3------ N/A 2.5
2024-07-15 09:40 pm 0.3------ N/A 2.5
2024-07-15 09:10 pm 0.3------ N/A 2.5
2024-07-15 08:40 pm 0.3------ N/A 2.4
2024-07-15 08:10 pm 0.3------ N/A 2.4
2024-07-15 07:40 pm 0.3------ N/A 2.4
2024-07-15 07:10 pm 0.3------ N/A 2.3
2024-07-15 06:40 pm 0.3------ N/A 2.3
2024-07-15 06:10 pm 0.3------ N/A 2.4
2024-07-15 05:40 pm 0.3------ N/A 2.7
2024-07-15 05:10 pm 0.3------ N/A 3.0
2024-07-15 04:10 pm 0.3------ N/A 3.0
2024-07-15 03:40 pm 0.3------ N/A 3.0
2024-07-15 03:10 pm 0.3------ N/A 2.8
2024-07-15 02:40 pm 0.3------ N/A 2.9
2024-07-15 02:10 pm 0.3------ N/A 2.8
2024-07-15 01:40 pm 0.3------ N/A 2.8
2024-07-15 01:10 pm 0.3------ N/A 2.8
2024-07-15 12:40 pm 0.3------ N/A 2.7
2024-07-15 12:10 pm 0.3------ N/A 2.7
2024-07-15 11:40 am 0.3------ N/A 2.6
2024-07-15 11:10 am 0.3------ N/A 2.6
2024-07-15 10:40 am 0.3------ N/A 2.5
2024-07-15 10:10 am 0.3------ N/A 2.6
2024-07-15 09:40 am 0.3------ N/A 2.6
2024-07-15 09:10 am 0.3------ N/A 2.7
2024-07-15 08:40 am 0.3------ N/A 2.7
2024-07-15 08:10 am 0.3------ N/A 2.7

Plot of wave energy versus frequency (and period)